Погода в Бешаре

Алжир     31°36′41″N   2°16′45″W
В апреле 2022 года жителям России запретили посещать сайт meteo.paraplan.net по решению Генеральной прокуратуры. Аудитория сайта уменьшилась в 10 раз. Владельцы сайта не видят смысла в поддержке погодного сервера в таких условиях. Сайт будет закрыт в октябре.
темп.,
°C
ветер,
м/с
пор.,
м/с
влажн.,
%
обл.,
%
осадки,
мм/ч
давл.,
гПа
погр.,
м
30 сентября, пт
пт3001:00+23с59255 0.0 1008232
04:00+23ссв5722100 0.0 1007273
07:00+22св5725100 0.0 1008293
10:00+24в5622100 0.0 1010812
13:00+25с5424100 0.0 10102025
16:00+24ссв7628100 0.0 10091835
19:00+21с10941100 0.0 1012692
22:00+18с81154100 1.3 1015407
1 октября, сб
сб101:00+19ссв484828 1.3 1013222
04:00+19ссв344548 0.0 101361
07:00+18всв364989 0.0 1016170
10:00+22всв914350 0.0 1017978
13:00+26в1314240 0.0 10151650
16:00+28в1214210 0.0 10142312
19:00+27всв11162463 0.0 1014762
22:00+25в13202650 0.0 1017827
2 октября, вс
вс201:00+24в1219300 0.0 1017633
04:00+22в111834100 0.0 1018523
07:00+21в11183952 0.0 1019464
10:00+24в12153735 0.0 1021749
13:00+31юв10132716 0.0 10201702
16:00+32юв11112512 0.0 10182831
19:00+29вюв81235100 0.1 1019552
22:00+23юв71250100 0.9 1023372
3 октября, пн
пн301:00+24в8145049 2.1 1021442
04:00+23в61252100 0.0 1021331
07:00+23в612505 0.0 1021250
10:00+26вюв68385 0.0 1022631
13:00+30юв66285 0.0 10201249
16:00+32ю34245 0.0 10182300
19:00+31юз112582 0.0 101731
22:00+29вюв342829 0.1 101844
4 октября, вт
вт401:00+27з113246 0.1 101812
04:00+26вюв223130 0.0 101612
07:00+25юв22330 0.0 101711
10:00+29ююв34250 0.0 1017507
13:00+32ююз36160 0.0 10163019
16:00+33юз3613100 0.0 10133981
19:00+31ссз5815100 0.0 1014180
22:00+28с591771 0.0 1015154